Regional Weather Roundup
Issued by NWS Little Rock, AR

Home | Current Version | Previous Version | Graphics & Text | Print | Product List | Glossary On
Versions: 1 2 3 4 5 6 7 8 9 10 11 12 13 14 15 16 17 18 19 20 21 22 23 24 25 26 27
000
ASUS44 KLZK 170205
RWRLZK

WEATHER ROUNDUP FOR ARKANSAS
NATIONAL WEATHER SERVICE LITTLE ROCK AR
900 PM CDT WED APR 16 2014

NOTE: "FAIR" INDICATES FEW OR NO CLOUDS BELOW 12,000 FEET WITH NO
SIGNIFICANT WEATHER AND/OR OBSTRUCTIONS TO VISIBILITY.

ARZ001-003-010-029-170300-
NORTHWEST ARKANSAS

CITY           SKY/WX    TMP DP  RH WIND       PRES   REMARKS
FAYETTEVILLE   CLEAR     49  33  54 CALM      30.05R
FORT SMITH     CLEAR     58  31  35 SE6       30.04R
HARRISON       CLEAR     50  29  44 SE9       30.05R
BENTONVILLE    CLEAR     52  28  40 S6        30.05R
ROGERS         CLEAR     53  30  41 SE7       30.05R
SILOAM SPGS    CLEAR     54  28  37 S6        30.05R
HIGHFILL       CLEAR     51  31  46 S6        30.04R
SPRINGDALE     MOCLDY    54  30  40 SE9       30.06R
$$

ARZ004-005-016-170300-
NORTH CENTRAL ARKANSAS

CITY           SKY/WX    TMP DP  RH WIND       PRES   REMARKS
BATESVILLE     CLEAR     50  34  53 SE6       30.11R
FLIPPIN        CLEAR     54  25  32 SE5       30.07R
MTN HOME       CLEAR     49  27  42 SE3       30.06R
$$

ARZ040-041-170300-
WEST CENTRAL ARKANSAS

CITY           SKY/WX    TMP DP  RH WIND       PRES   REMARKS
MENA           CLEAR     54  32  43 CALM      30.06R
MOUNT IDA      PTCLDY    50  35  56 CALM      30.04R
$$

ARZ009-017-025-026-028-170300-
NORTHEAST ARKANSAS

CITY           SKY/WX    TMP DP  RH WIND       PRES   REMARKS
CORNING        FAIR      48  41  76 SE6       30.14R
JONESBORO      CLEAR     44  36  73 CALM      30.13R
NEWPORT        CLEAR     51  40  66 S6        30.14R
WALNUT RIDGE   CLEAR     50  37  62 SE7       30.12S
BLYTHEVILLE    PTCLDY    51  38  60 E5        30.14R
$$

ARZ022-023-033-042-044-170300-
CENTRAL ARKANSAS

CITY           SKY/WX    TMP DP  RH WIND       PRES   REMARKS
LITTLE ROCK    MOCLDY    51  36  56 SE6       30.12R
N LITTLE ROCK  MOCLDY    52  38  59 SE6       30.12R
JACKSONVILLE   CLEAR     48  40  72 CALM      30.11R
SEARCY         PTCLDY    49  36  61 CALM      30.13R
HOT SPRINGS    PTCLDY    54  31  41 SE3       30.08R
RUSSELLVILLE   CLEAR     52  34  50 E5        30.07R
CLINTON        FAIR      48  37  66 CALM      30.11R
$$

ARZ036-170300-
EAST ARKANSAS

CITY           SKY/WX    TMP DP  RH WIND       PRES   REMARKS
WEST MEMPHIS   PTCLDY    49  38  65 CALM      30.12R
$$

ARZ050-053-066-070-073-170300-
SOUTHWEST ARKANSAS

CITY           SKY/WX    TMP DP  RH WIND       PRES   REMARKS
ARKADELPHIA    FAIR      53  42  66 CALM      30.10R
CAMDEN         PTCLDY    50  36  57 MISG      30.10R
TEXARKANA      CLEAR     54  35  48 SE3       30.06R
EL DORADO      CLEAR     51  39  63 E5        30.09R
DE QUEEN       CLEAR     50  39  66 CALM      30.04R
$$

ARZ056-057-069-170300-
SOUTHEAST ARKANSAS

CITY           SKY/WX    TMP DP  RH WIND       PRES   REMARKS
PINE BLUFF     PTCLDY    49  41  74 SE8       30.11R
STUTTGART      PTCLDY    52  37  58 SE6       30.13R
MONTICELLO     PTCLDY    48  40  73 CALM      30.11R

$$





USA.gov is the U.S. government's official web portal to all federal, state and local government web resources and services.